owner,sensor,date,latitude,longitude,vertical_datum,sea_water_temperature,qcFlag 
NDBC,ioos:station:wmo:42036:1,2013-09-03T21:50:00Z,28.5000,-84.5170,-0.6,31.7,2 
NDBC,ioos:station:wmo:42036:1,2013-09-03T22:50:00Z,28.5000,-84.5170,-0.6,31.3,2 
NDBC,ioos:station:wmo:42036:1,2013-09-03T23:50:00Z,28.5000,-84.5170,-0.6,31.2,2 
NDBC,ioos:station:wmo:42036:1,2013-09-04T00:50:00Z,28.5000,-84.5170,-0.6,31.0,2 
NDBC,ioos:station:wmo:42036:1,2013-09-04T01:50:00Z,28.5000,-84.5170,-0.6,31.1,2 
NDBC,ioos:station:wmo:42036:1,2013-09-04T02:50:00Z,28.5000,-84.5170,-0.6,30.8,2 
NDBC,ioos:station:wmo:42036:1,2013-09-04T03:50:00Z,28.5000,-84.5170,-0.6,30.6,2 
NDBC,ioos:station:wmo:42036:1,2013-09-04T04:50:00Z,28.5000,-84.5170,-0.6,30.4,2 
NDBC,ioos:station:wmo:42036:1,2013-09-04T05:50:00Z,28.5000,-84.5170,-0.6,30.1,2 
NDBC,ioos:station:wmo:42036:1,2013-09-04T06:50:00Z,28.5000,-84.5170,-0.6,30.0,2 
NDBC,ioos:station:wmo:42036:1,2013-09-04T07:50:00Z,28.5000,-84.5170,-0.6,30.0,2 
NDBC,ioos:station:wmo:42036:1,2013-09-04T08:50:00Z,28.5000,-84.5170,-0.6,29.9,2 
NDBC,ioos:station:wmo:42036:1,2013-09-04T09:50:00Z,28.5000,-84.5170,-0.6,30.0,2 
NDBC,ioos:station:wmo:42036:1,2013-09-04T10:50:00Z,28.5000,-84.5170,-0.6,29.9,2 
NDBC,ioos:station:wmo:42036:1,2013-09-04T11:50:00Z,28.5000,-84.5170,-0.6,29.9,2 
NDBC,ioos:station:wmo:42036:1,2013-09-04T12:50:00Z,28.5000,-84.5170,-0.6,30.0,2 
NDBC,ioos:station:wmo:42036:1,2013-09-04T13:50:00Z,28.5000,-84.5170,-0.6,30.1,2 
NDBC,ioos:station:wmo:42036:1,2013-09-04T14:50:00Z,28.5000,-84.5170,-0.6,30.4,2 
NDBC,ioos:station:wmo:42036:1,2013-09-04T15:50:00Z,28.5000,-84.5170,-0.6,30.2,2 
NDBC,ioos:station:wmo:42036:1,2013-09-04T16:50:00Z,28.5000,-84.5170,-0.6,30.3,2 
NDBC,ioos:station:wmo:42036:1,2013-09-04T17:50:00Z,28.5000,-84.5170,-0.6,30.4,2 
NDBC,ioos:station:wmo:42036:1,2013-09-04T18:50:00Z,28.5000,-84.5170,-0.6,30.6,2 
NDBC,ioos:station:wmo:42036:1,2013-09-04T19:50:00Z,28.5000,-84.5170,-0.6,30.8,2 
NDBC,ioos:station:wmo:42036:1,2013-09-04T20:50:00Z,28.5000,-84.5170,-0.6,31.0,2 
NDBC,ioos:station:wmo:42036:1,2013-09-04T21:50:00Z,28.5000,-84.5170,-0.6,31.1,2 
NDBC,ioos:station:wmo:42036:1,2013-09-04T22:50:00Z,28.5000,-84.5170,-0.6,30.9,2 
NDBC,ioos:station:wmo:42036:1,2013-09-04T23:50:00Z,28.5000,-84.5170,-0.6,30.8,2 
NDBC,ioos:station:wmo:42036:1,2013-09-05T00:50:00Z,28.5000,-84.5170,-0.6,30.6,2 
NDBC,ioos:station:wmo:42036:1,2013-09-05T01:50:00Z,28.5000,-84.5170,-0.6,30.6,2 
NDBC,ioos:station:wmo:42036:1,2013-09-05T02:50:00Z,28.5000,-84.5170,-0.6,30.4,2 
NDBC,ioos:station:wmo:42036:1,2013-09-05T03:50:00Z,28.5000,-84.5170,-0.6,30.3,2 
NDBC,ioos:station:wmo:42036:1,2013-09-05T04:50:00Z,28.5000,-84.5170,-0.6,30.2,2 
NDBC,ioos:station:wmo:42036:1,2013-09-05T05:50:00Z,28.5000,-84.5170,-0.6,30.2,2 
NDBC,ioos:station:wmo:42036:1,2013-09-05T06:50:00Z,28.5000,-84.5170,-0.6,30.1,2 
NDBC,ioos:station:wmo:42036:1,2013-09-05T07:50:00Z,28.5000,-84.5170,-0.6,30.1,2 
NDBC,ioos:station:wmo:42036:1,2013-09-05T08:50:00Z,28.5000,-84.5170,-0.6,30.0,2 
NDBC,ioos:station:wmo:42036:1,2013-09-05T09:50:00Z,28.5000,-84.5170,-0.6,30.0,2 
NDBC,ioos:station:wmo:42036:1,2013-09-05T10:50:00Z,28.5000,-84.5170,-0.6,30.0,2 
NDBC,ioos:station:wmo:42036:1,2013-09-05T11:50:00Z,28.5000,-84.5170,-0.6,30.0,2 
NDBC,ioos:station:wmo:42036:1,2013-09-05T12:50:00Z,28.5000,-84.5170,-0.6,29.9,2 
NDBC,ioos:station:wmo:42036:1,2013-09-05T13:50:00Z,28.5000,-84.5170,-0.6,29.9,2 
NDBC,ioos:station:wmo:42036:1,2013-09-05T14:50:00Z,28.5000,-84.5170,-0.6,30.0,2 
NDBC,ioos:station:wmo:42036:1,2013-09-05T15:50:00Z,28.5000,-84.5170,-0.6,30.2,2 
NDBC,ioos:station:wmo:42036:1,2013-09-05T16:50:00Z,28.5000,-84.5170,-0.6,30.3,2 
NDBC,ioos:station:wmo:42036:1,2013-09-05T17:50:00Z,28.5000,-84.5170,-0.6,30.3,2 
NDBC,ioos:station:wmo:42036:1,2013-09-05T18:50:00Z,28.5000,-84.5170,-0.6,30.4,2 
NDBC,ioos:station:wmo:42036:1,2013-09-05T19:50:00Z,28.5000,-84.5170,-0.6,30.4,2 
NDBC,ioos:station:wmo:42036:1,2013-09-05T20:50:00Z,28.5000,-84.5170,-0.6,30.5,2 
NDBC,ioos:station:wmo:42036:1,2013-09-05T21:50:00Z,28.5000,-84.5170,-0.6,30.5,2 
NDBC,ioos:station:wmo:42036:1,2013-09-05T22:50:00Z,28.5000,-84.5170,-0.6,30.5,2 
NDBC,ioos:station:wmo:42036:1,2013-09-05T23:50:00Z,28.5000,-84.5170,-0.6,30.5,2 
NDBC,ioos:station:wmo:42036:1,2013-09-06T00:50:00Z,28.5000,-84.5170,-0.6,30.4,2 
NDBC,ioos:station:wmo:42036:1,2013-09-06T01:50:00Z,28.5000,-84.5170,-0.6,30.4,2 
NDBC,ioos:station:wmo:42036:1,2013-09-06T02:50:00Z,28.5000,-84.5170,-0.6,30.4,2 
NDBC,ioos:station:wmo:42036:1,2013-09-06T03:50:00Z,28.5000,-84.5170,-0.6,30.3,2 
NDBC,ioos:station:wmo:42036:1,2013-09-06T04:50:00Z,28.5000,-84.5170,-0.6,30.3,2 
NDBC,ioos:station:wmo:42036:1,2013-09-06T05:50:00Z,28.5000,-84.5170,-0.6,30.2,2 
NDBC,ioos:station:wmo:42036:1,2013-09-06T06:50:00Z,28.5000,-84.5170,-0.6,30.2,2 
NDBC,ioos:station:wmo:42036:1,2013-09-06T07:50:00Z,28.5000,-84.5170,-0.6,30.2,2 
NDBC,ioos:station:wmo:42036:1,2013-09-06T08:50:00Z,28.5000,-84.5170,-0.6,30.1,2 
NDBC,ioos:station:wmo:42036:1,2013-09-06T09:50:00Z,28.5000,-84.5170,-0.6,30.1,2 
NDBC,ioos:station:wmo:42036:1,2013-09-06T10:50:00Z,28.5000,-84.5170,-0.6,30.1,2 
NDBC,ioos:station:wmo:42036:1,2013-09-06T11:50:00Z,28.5000,-84.5170,-0.6,30.1,2 
NDBC,ioos:station:wmo:42036:1,2013-09-06T12:50:00Z,28.5000,-84.5170,-0.6,30.0,2 
NDBC,ioos:station:wmo:42036:1,2013-09-06T13:50:00Z,28.5000,-84.5170,-0.6,30.0,2 
NDBC,ioos:station:wmo:42036:1,2013-09-06T14:50:00Z,28.5000,-84.5170,-0.6,30.0,2 
NDBC,ioos:station:wmo:42036:1,2013-09-06T15:50:00Z,28.5000,-84.5170,-0.6,30.0,2 
NDBC,ioos:station:wmo:42036:1,2013-09-06T16:50:00Z,28.5000,-84.5170,-0.6,30.0,2 
NDBC,ioos:station:wmo:42036:1,2013-09-06T17:50:00Z,28.5000,-84.5170,-0.6,30.0,2 
NDBC,ioos:station:wmo:42036:1,2013-09-06T18:50:00Z,28.5000,-84.5170,-0.6,30.1,2 
NDBC,ioos:station:wmo:42036:1,2013-09-06T19:50:00Z,28.5000,-84.5170,-0.6,30.2,2 
NDBC,ioos:station:wmo:42036:1,2013-09-06T20:50:00Z,28.5000,-84.5170,-0.6,30.3,2 
NDBC,ioos:station:wmo:42036:1,2013-09-06T21:50:00Z,28.5000,-84.5170,-0.6,30.3,2 
NDBC,ioos:station:wmo:42036:1,2013-09-06T22:50:00Z,28.5000,-84.5170,-0.6,30.3,2 
NDBC,ioos:station:wmo:42036:1,2013-09-06T23:50:00Z,28.5000,-84.5170,-0.6,30.2,2 
NDBC,ioos:station:wmo:42036:1,2013-09-07T00:50:00Z,28.5000,-84.5170,-0.6,30.2,2 
NDBC,ioos:station:wmo:42036:1,2013-09-07T01:50:00Z,28.5000,-84.5170,-0.6,30.1,2 
NDBC,ioos:station:wmo:42036:1,2013-09-07T02:50:00Z,28.5000,-84.5170,-0.6,30.1,2 
NDBC,ioos:station:wmo:42036:1,2013-09-07T03:50:00Z,28.5000,-84.5170,-0.6,30.1,2 
NDBC,ioos:station:wmo:42036:1,2013-09-07T04:50:00Z,28.5000,-84.5170,-0.6,30.0,2 
NDBC,ioos:station:wmo:42036:1,2013-09-07T05:50:00Z,28.5000,-84.5170,-0.6,30.0,2 
NDBC,ioos:station:wmo:42036:1,2013-09-07T06:50:00Z,28.5000,-84.5170,-0.6,30.0,2 
NDBC,ioos:station:wmo:42036:1,2013-09-07T07:50:00Z,28.5000,-84.5170,-0.6,30.0,2 
NDBC,ioos:station:wmo:42036:1,2013-09-07T08:50:00Z,28.5000,-84.5170,-0.6,29.9,2 
NDBC,ioos:station:wmo:42036:1,2013-09-07T09:50:00Z,28.5000,-84.5170,-0.6,29.9,2 
NDBC,ioos:station:wmo:42036:1,2013-09-07T11:50:00Z,28.5000,-84.5170,-0.6,29.9,2 
NDBC,ioos:station:wmo:42036:1,2013-09-07T12:50:00Z,28.5000,-84.5170,-0.6,29.9,2 
NDBC,ioos:station:wmo:42036:1,2013-09-07T13:50:00Z,28.5000,-84.5170,-0.6,29.9,2 
NDBC,ioos:station:wmo:42036:1,2013-09-07T14:50:00Z,28.5000,-84.5170,-0.6,29.9,2 
NDBC,ioos:station:wmo:42036:1,2013-09-07T15:50:00Z,28.5000,-84.5170,-0.6,30.0,2 
NDBC,ioos:station:wmo:42036:1,2013-09-07T16:50:00Z,28.5000,-84.5170,-0.6,30.0,2 
NDBC,ioos:station:wmo:42036:1,2013-09-07T17:50:00Z,28.5000,-84.5170,-0.6,30.0,2 
NDBC,ioos:station:wmo:42036:1,2013-09-07T18:50:00Z,28.5000,-84.5170,-0.6,30.0,2 
NDBC,ioos:station:wmo:42036:1,2013-09-07T19:50:00Z,28.5000,-84.5170,-0.6,30.0,2 
NDBC,ioos:station:wmo:42036:1,2013-09-07T21:50:00Z,28.5000,-84.5170,-0.6,30.1,2 
NDBC,ioos:station:wmo:42036:1,2013-09-07T22:50:00Z,28.5000,-84.5170,-0.6,30.1,2 
NDBC,ioos:station:wmo:42036:1,2013-09-07T23:50:00Z,28.5000,-84.5170,-0.6,30.0,2 
NDBC,ioos:station:wmo:42036:1,2013-09-08T00:50:00Z,28.5000,-84.5170,-0.6,30.0,2 
NDBC,ioos:station:wmo:42036:1,2013-09-08T01:50:00Z,28.5000,-84.5170,-0.6,30.0,2 
NDBC,ioos:station:wmo:42036:1,2013-09-08T02:50:00Z,28.5000,-84.5170,-0.6,29.9,2 
NDBC,ioos:station:wmo:42036:1,2013-09-08T03:50:00Z,28.5000,-84.5170,-0.6,29.9,2 
NDBC,ioos:station:wmo:42036:1,2013-09-08T04:50:00Z,28.5000,-84.5170,-0.6,29.8,2 
NDBC,ioos:station:wmo:42036:1,2013-09-08T05:50:00Z,28.5000,-84.5170,-0.6,29.8,2 
NDBC,ioos:station:wmo:42036:1,2013-09-08T06:50:00Z,28.5000,-84.5170,-0.6,29.8,2 
NDBC,ioos:station:wmo:42036:1,2013-09-08T07:50:00Z,28.5000,-84.5170,-0.6,29.8,2 
NDBC,ioos:station:wmo:42036:1,2013-09-08T08:50:00Z,28.5000,-84.5170,-0.6,29.7,2 
NDBC,ioos:station:wmo:42036:1,2013-09-08T09:50:00Z,28.5000,-84.5170,-0.6,29.7,2 
NDBC,ioos:station:wmo:42036:1,2013-09-08T10:50:00Z,28.5000,-84.5170,-0.6,29.7,2 
NDBC,ioos:station:wmo:42036:1,2013-09-08T11:50:00Z,28.5000,-84.5170,-0.6,29.7,2 
NDBC,ioos:station:wmo:42036:1,2013-09-08T12:50:00Z,28.5000,-84.5170,-0.6,29.7,2 
NDBC,ioos:station:wmo:42036:1,2013-09-08T13:50:00Z,28.5000,-84.5170,-0.6,29.6,2 
NDBC,ioos:station:wmo:42036:1,2013-09-08T14:50:00Z,28.5000,-84.5170,-0.6,29.7,2 
NDBC,ioos:station:wmo:42036:1,2013-09-08T15:50:00Z,28.5000,-84.5170,-0.6,29.7,2 
NDBC,ioos:station:wmo:42036:1,2013-09-08T17:50:00Z,28.5000,-84.5170,-0.6,29.9,2 
NDBC,ioos:station:wmo:42036:1,2013-09-08T18:50:00Z,28.5000,-84.5170,-0.6,29.9,2 
NDBC,ioos:station:wmo:42036:1,2013-09-08T19:50:00Z,28.5000,-84.5170,-0.6,29.8,2 
NDBC,ioos:station:wmo:42036:1,2013-09-08T20:50:00Z,28.5000,-84.5170,-0.6,29.8,2 
NDBC,ioos:station:wmo:42036:1,2013-09-08T21:50:00Z,28.5000,-84.5170,-0.6,29.8,2 
NDBC,ioos:station:wmo:42036:1,2013-09-08T22:50:00Z,28.5000,-84.5170,-0.6,29.8,2 
NDBC,ioos:station:wmo:42036:1,2013-09-08T23:50:00Z,28.5000,-84.5170,-0.6,29.8,2 
NDBC,ioos:station:wmo:42036:1,2013-09-09T00:50:00Z,28.5000,-84.5170,-0.6,29.7,2 
NDBC,ioos:station:wmo:42036:1,2013-09-09T01:50:00Z,28.5000,-84.5170,-0.6,29.6,2 
NDBC,ioos:station:wmo:42036:1,2013-09-09T02:50:00Z,28.5000,-84.5170,-0.6,29.6,2 
NDBC,ioos:station:wmo:42036:1,2013-09-09T03:50:00Z,28.5000,-84.5170,-0.6,29.5,2 
NDBC,ioos:station:wmo:42036:1,2013-09-09T04:50:00Z,28.5000,-84.5170,-0.6,29.5,2 
NDBC,ioos:station:wmo:42036:1,2013-09-09T05:50:00Z,28.5000,-84.5170,-0.6,29.4,2 
NDBC,ioos:station:wmo:42036:1,2013-09-09T06:50:00Z,28.5000,-84.5170,-0.6,29.4,2 
NDBC,ioos:station:wmo:42036:1,2013-09-09T07:50:00Z,28.5000,-84.5170,-0.6,29.4,2 
NDBC,ioos:station:wmo:42036:1,2013-09-09T08:50:00Z,28.5000,-84.5170,-0.6,29.3,2 
NDBC,ioos:station:wmo:42036:1,2013-09-09T09:50:00Z,28.5000,-84.5170,-0.6,29.3,2 
NDBC,ioos:station:wmo:42036:1,2013-09-09T10:50:00Z,28.5000,-84.5170,-0.6,29.3,2 
NDBC,ioos:station:wmo:42036:1,2013-09-09T11:50:00Z,28.5000,-84.5170,-0.6,29.2,2 
NDBC,ioos:station:wmo:42036:1,2013-09-09T12:50:00Z,28.5000,-84.5170,-0.6,29.2,2 
NDBC,ioos:station:wmo:42036:1,2013-09-09T13:50:00Z,28.5000,-84.5170,-0.6,29.2,2 
NDBC,ioos:station:wmo:42036:1,2013-09-09T14:50:00Z,28.5000,-84.5170,-0.6,29.3,2 
NDBC,ioos:station:wmo:42036:1,2013-09-09T15:50:00Z,28.5000,-84.5170,-0.6,29.3,2 
NDBC,ioos:station:wmo:42036:1,2013-09-09T16:50:00Z,28.5000,-84.5170,-0.6,29.3,2 
NDBC,ioos:station:wmo:42036:1,2013-09-09T17:50:00Z,28.5000,-84.5170,-0.6,29.4,2 
NDBC,ioos:station:wmo:42036:1,2013-09-09T18:50:00Z,28.5000,-84.5170,-0.6,29.5,2 
NDBC,ioos:station:wmo:42036:1,2013-09-09T19:50:00Z,28.5000,-84.5170,-0.6,29.5,2 
NDBC,ioos:station:wmo:42036:1,2013-09-09T20:50:00Z,28.5000,-84.5170,-0.6,29.5,2 
NDBC,ioos:station:wmo:42036:1,2013-09-09T21:50:00Z,28.5000,-84.5170,-0.6,29.6,2 
NDBC,ioos:station:wmo:42036:1,2013-09-09T22:50:00Z,28.5000,-84.5170,-0.6,29.6,2 
NDBC,ioos:station:wmo:42036:1,2013-09-09T23:50:00Z,28.5000,-84.5170,-0.6,29.6,2 
NDBC,ioos:station:wmo:42036:1,2013-09-10T00:50:00Z,28.5000,-84.5170,-0.6,29.6,2 
NDBC,ioos:station:wmo:42036:1,2013-09-10T01:50:00Z,28.5000,-84.5170,-0.6,29.6,2 
NDBC,ioos:station:wmo:42036:1,2013-09-10T02:50:00Z,28.5000,-84.5170,-0.6,29.6,2 
NDBC,ioos:station:wmo:42036:1,2013-09-10T03:50:00Z,28.5000,-84.5170,-0.6,29.5,2 
NDBC,ioos:station:wmo:42036:1,2013-09-10T04:50:00Z,28.5000,-84.5170,-0.6,29.7,2 
NDBC,ioos:station:wmo:42036:1,2013-09-10T06:50:00Z,28.5000,-84.5170,-0.6,29.6,2 
NDBC,ioos:station:wmo:42036:1,2013-09-10T07:50:00Z,28.5000,-84.5170,-0.6,29.6,2 
NDBC,ioos:station:wmo:42036:1,2013-09-10T08:50:00Z,28.5000,-84.5170,-0.6,29.6,2 
NDBC,ioos:station:wmo:42036:1,2013-09-10T09:50:00Z,28.5000,-84.5170,-0.6,29.5,2 
NDBC,ioos:station:wmo:42036:1,2013-09-10T10:50:00Z,28.5000,-84.5170,-0.6,29.5,2 
NDBC,ioos:station:wmo:42036:1,2013-09-10T11:50:00Z,28.5000,-84.5170,-0.6,29.4,2 
NDBC,ioos:station:wmo:42036:1,2013-09-10T12:50:00Z,28.5000,-84.5170,-0.6,29.4,2 
NDBC,ioos:station:wmo:42036:1,2013-09-10T13:50:00Z,28.5000,-84.5170,-0.6,29.4,2 
NDBC,ioos:station:wmo:42036:1,2013-09-10T14:50:00Z,28.5000,-84.5170,-0.6,29.5,2 
NDBC,ioos:station:wmo:42036:1,2013-09-10T15:50:00Z,28.5000,-84.5170,-0.6,29.5,2 
NDBC,ioos:station:wmo:42036:1,2013-09-10T16:50:00Z,28.5000,-84.5170,-0.6,29.4,2 
NDBC,ioos:station:wmo:42036:1,2013-09-10T17:50:00Z,28.5000,-84.5170,-0.6,29.5,2 
NDBC,ioos:station:wmo:42036:1,2013-09-10T18:50:00Z,28.5000,-84.5170,-0.6,29.6,2 
NDBC,ioos:station:wmo:42036:1,2013-09-10T19:50:00Z,28.5000,-84.5170,-0.6,29.5,2 
NDBC,ioos:station:wmo:42036:1,2013-09-10T20:50:00Z,28.5000,-84.5170,-0.6,29.4,2 
NDBC,ioos:station:wmo:42036:1,2013-09-10T21:50:00Z,28.5000,-84.5170,-0.6,29.5,2 
NDBC,ioos:station:wmo:42036:1,2013-09-10T22:50:00Z,28.5000,-84.5170,-0.6,29.7,2 
NDBC,ioos:station:wmo:42036:1,2013-09-11T00:50:00Z,28.5000,-84.5170,-0.6,29.6,2 
NDBC,ioos:station:wmo:42036:1,2013-09-11T01:50:00Z,28.5000,-84.5170,-0.6,29.5,2 
NDBC,ioos:station:wmo:42036:1,2013-09-11T02:50:00Z,28.5000,-84.5170,-0.6,29.5,2 
NDBC,ioos:station:wmo:42036:1,2013-09-11T03:50:00Z,28.5000,-84.5170,-0.6,29.5,2 
NDBC,ioos:station:wmo:42036:1,2013-09-11T04:50:00Z,28.5000,-84.5170,-0.6,29.5,2 
NDBC,ioos:station:wmo:42036:1,2013-09-11T05:50:00Z,28.5000,-84.5170,-0.6,29.4,2 
NDBC,ioos:station:wmo:42036:1,2013-09-11T06:50:00Z,28.5000,-84.5170,-0.6,29.4,2 
NDBC,ioos:station:wmo:42036:1,2013-09-11T07:50:00Z,28.5000,-84.5170,-0.6,29.3,2 
NDBC,ioos:station:wmo:42036:1,2013-09-11T08:50:00Z,28.5000,-84.5170,-0.6,29.3,2 
NDBC,ioos:station:wmo:42036:1,2013-09-11T09:50:00Z,28.5000,-84.5170,-0.6,29.3,2 
NDBC,ioos:station:wmo:42036:1,2013-09-11T10:50:00Z,28.5000,-84.5170,-0.6,29.2,2 
NDBC,ioos:station:wmo:42036:1,2013-09-11T11:50:00Z,28.5000,-84.5170,-0.6,29.2,2 
NDBC,ioos:station:wmo:42036:1,2013-09-11T12:50:00Z,28.5000,-84.5170,-0.6,29.1,2 
NDBC,ioos:station:wmo:42036:1,2013-09-11T13:50:00Z,28.5000,-84.5170,-0.6,29.3,2 
NDBC,ioos:station:wmo:42036:1,2013-09-11T14:50:00Z,28.5000,-84.5170,-0.6,29.3,2 
NDBC,ioos:station:wmo:42036:1,2013-09-11T15:50:00Z,28.5000,-84.5170,-0.6,29.4,2 
NDBC,ioos:station:wmo:42036:1,2013-09-11T16:50:00Z,28.5000,-84.5170,-0.6,29.4,2 
NDBC,ioos:station:wmo:42036:1,2013-09-11T17:50:00Z,28.5000,-84.5170,-0.6,29.5,2 
NDBC,ioos:station:wmo:42036:1,2013-09-11T18:50:00Z,28.5000,-84.5170,-0.6,29.6,2 
NDBC,ioos:station:wmo:42036:1,2013-09-11T19:50:00Z,28.5000,-84.5170,-0.6,29.6,2 
NDBC,ioos:station:wmo:42036:1,2013-09-11T20:50:00Z,28.5000,-84.5170,-0.6,29.6,2 
NDBC,ioos:station:wmo:42036:1,2013-09-11T22:50:00Z,28.5000,-84.5170,-0.6,29.6,2 
NDBC,ioos:station:wmo:42036:1,2013-09-11T23:50:00Z,28.5000,-84.5170,-0.6,29.5,2 
NDBC,ioos:station:wmo:42036:1,2013-09-12T00:50:00Z,28.5000,-84.5170,-0.6,29.4,2 
NDBC,ioos:station:wmo:42036:1,2013-09-12T01:50:00Z,28.5000,-84.5170,-0.6,29.4,2 
NDBC,ioos:station:wmo:42036:1,2013-09-12T02:50:00Z,28.5000,-84.5170,-0.6,29.4,2 
NDBC,ioos:station:wmo:42036:1,2013-09-12T03:50:00Z,28.5000,-84.5170,-0.6,29.3,2 
NDBC,ioos:station:wmo:42036:1,2013-09-12T04:50:00Z,28.5000,-84.5170,-0.6,29.3,2 
NDBC,ioos:station:wmo:42036:1,2013-09-12T05:50:00Z,28.5000,-84.5170,-0.6,29.3,2 
NDBC,ioos:station:wmo:42036:1,2013-09-12T06:50:00Z,28.5000,-84.5170,-0.6,29.3,2 
NDBC,ioos:station:wmo:42036:1,2013-09-12T07:50:00Z,28.5000,-84.5170,-0.6,29.3,2 
NDBC,ioos:station:wmo:42036:1,2013-09-12T08:50:00Z,28.5000,-84.5170,-0.6,29.3,2 
NDBC,ioos:station:wmo:42036:1,2013-09-12T09:50:00Z,28.5000,-84.5170,-0.6,29.3,2 
NDBC,ioos:station:wmo:42036:1,2013-09-12T10:50:00Z,28.5000,-84.5170,-0.6,29.2,2 
NDBC,ioos:station:wmo:42036:1,2013-09-12T11:50:00Z,28.5000,-84.5170,-0.6,29.2,2 
NDBC,ioos:station:wmo:42036:1,2013-09-12T12:50:00Z,28.5000,-84.5170,-0.6,29.2,2 
NDBC,ioos:station:wmo:42036:1,2013-09-12T13:50:00Z,28.5000,-84.5170,-0.6,29.2,2 
NDBC,ioos:station:wmo:42036:1,2013-09-12T14:50:00Z,28.5000,-84.5170,-0.6,29.2,2 
NDBC,ioos:station:wmo:42036:1,2013-09-12T15:50:00Z,28.5000,-84.5170,-0.6,29.3,2 
NDBC,ioos:station:wmo:42036:1,2013-09-12T16:50:00Z,28.5000,-84.5170,-0.6,29.4,2 
NDBC,ioos:station:wmo:42036:1,2013-09-12T17:50:00Z,28.5000,-84.5170,-0.6,29.4,2 
NDBC,ioos:station:wmo:42036:1,2013-09-12T18:50:00Z,28.5000,-84.5170,-0.6,29.5,2 
NDBC,ioos:station:wmo:42036:1,2013-09-12T19:50:00Z,28.5000,-84.5170,-0.6,29.5,2 
NDBC,ioos:station:wmo:42036:1,2013-09-12T20:50:00Z,28.5000,-84.5170,-0.6,29.5,2 
NDBC,ioos:station:wmo:42036:1,2013-09-12T21:50:00Z,28.5000,-84.5170,-0.6,29.6,2 
NDBC,ioos:station:wmo:42036:1,2013-09-12T22:50:00Z,28.5000,-84.5170,-0.6,29.6,2 
NDBC,ioos:station:wmo:42036:1,2013-09-13T00:50:00Z,28.5000,-84.5170,-0.6,29.4,2 
NDBC,ioos:station:wmo:42036:1,2013-09-13T01:50:00Z,28.5000,-84.5170,-0.6,29.4,2 
NDBC,ioos:station:wmo:42036:1,2013-09-13T02:50:00Z,28.5000,-84.5170,-0.6,29.4,2 
NDBC,ioos:station:wmo:42036:1,2013-09-13T03:50:00Z,28.5000,-84.5170,-0.6,29.4,2 
NDBC,ioos:station:wmo:42036:1,2013-09-13T04:50:00Z,28.5000,-84.5170,-0.6,29.4,2 
NDBC,ioos:station:wmo:42036:1,2013-09-13T05:50:00Z,28.5000,-84.5170,-0.6,29.4,2 
NDBC,ioos:station:wmo:42036:1,2013-09-13T06:50:00Z,28.5000,-84.5170,-0.6,29.3,2 
NDBC,ioos:station:wmo:42036:1,2013-09-13T07:50:00Z,28.5000,-84.5170,-0.6,29.3,2 
NDBC,ioos:station:wmo:42036:1,2013-09-13T08:50:00Z,28.5000,-84.5170,-0.6,29.3,2 
NDBC,ioos:station:wmo:42036:1,2013-09-13T09:50:00Z,28.5000,-84.5170,-0.6,29.3,2 
NDBC,ioos:station:wmo:42036:1,2013-09-13T10:50:00Z,28.5000,-84.5170,-0.6,29.2,2 
NDBC,ioos:station:wmo:42036:1,2013-09-13T11:50:00Z,28.5000,-84.5170,-0.6,29.2,2 
NDBC,ioos:station:wmo:42036:1,2013-09-13T12:50:00Z,28.5000,-84.5170,-0.6,29.3,2 
NDBC,ioos:station:wmo:42036:1,2013-09-13T13:50:00Z,28.5000,-84.5170,-0.6,29.4,2 
NDBC,ioos:station:wmo:42036:1,2013-09-13T14:50:00Z,28.5000,-84.5170,-0.6,29.4,2 
NDBC,ioos:station:wmo:42036:1,2013-09-13T15:50:00Z,28.5000,-84.5170,-0.6,29.5,2 
NDBC,ioos:station:wmo:42036:1,2013-09-13T16:50:00Z,28.5000,-84.5170,-0.6,29.5,2 
NDBC,ioos:station:wmo:42036:1,2013-09-13T17:50:00Z,28.5000,-84.5170,-0.6,29.6,2 
NDBC,ioos:station:wmo:42036:1,2013-09-13T18:50:00Z,28.5000,-84.5170,-0.6,29.7,2 
NDBC,ioos:station:wmo:42036:1,2013-09-13T19:50:00Z,28.5000,-84.5170,-0.6,29.8,2 
NDBC,ioos:station:wmo:42036:1,2013-09-13T20:50:00Z,28.5000,-84.5170,-0.6,29.9,2 
NDBC,ioos:station:wmo:42036:1,2013-09-13T21:50:00Z,28.5000,-84.5170,-0.6,29.8,2 
NDBC,ioos:station:wmo:42036:1,2013-09-13T22:50:00Z,28.5000,-84.5170,-0.6,29.8,2 
NDBC,ioos:station:wmo:42036:1,2013-09-13T23:50:00Z,28.5000,-84.5170,-0.6,29.7,2 
NDBC,ioos:station:wmo:42036:1,2013-09-14T00:50:00Z,28.5000,-84.5170,-0.6,29.7,2 
NDBC,ioos:station:wmo:42036:1,2013-09-14T01:50:00Z,28.5000,-84.5170,-0.6,29.6,2 
NDBC,ioos:station:wmo:42036:1,2013-09-14T05:50:00Z,28.5000,-84.5170,-0.6,29.5,2 
NDBC,ioos:station:wmo:42036:1,2013-09-14T14:50:00Z,28.5000,-84.5170,-0.6,29.5,2 
NDBC,ioos:station:wmo:42036:1,2013-09-14T15:50:00Z,28.5000,-84.5170,-0.6,29.5,2 
NDBC,ioos:station:wmo:42036:1,2013-09-14T16:50:00Z,28.5000,-84.5170,-0.6,29.6,2 
NDBC,ioos:station:wmo:42036:1,2013-09-14T17:50:00Z,28.5000,-84.5170,-0.6,29.6,2 
NDBC,ioos:station:wmo:42036:1,2013-09-14T18:50:00Z,28.5000,-84.5170,-0.6,29.6,2 
NDBC,ioos:station:wmo:42036:1,2013-09-14T19:50:00Z,28.5000,-84.5170,-0.6,29.6,2 
NDBC,ioos:station:wmo:42036:1,2013-09-14T20:50:00Z,28.5000,-84.5170,-0.6,29.7,2 
NDBC,ioos:station:wmo:42036:1,2013-09-14T21:50:00Z,28.5000,-84.5170,-0.6,29.6,2 
NDBC,ioos:station:wmo:42036:1,2013-09-14T22:50:00Z,28.5000,-84.5170,-0.6,29.6,2 
NDBC,ioos:station:wmo:42036:1,2013-09-14T23:50:00Z,28.5000,-84.5170,-0.6,29.5,2 
NDBC,ioos:station:wmo:42036:1,2013-09-15T00:50:00Z,28.5000,-84.5170,-0.6,29.5,2 
NDBC,ioos:station:wmo:42036:1,2013-09-15T01:50:00Z,28.5000,-84.5170,-0.6,29.5,2 
NDBC,ioos:station:wmo:42036:1,2013-09-15T02:50:00Z,28.5000,-84.5170,-0.6,29.5,2 
NDBC,ioos:station:wmo:42036:1,2013-09-15T03:50:00Z,28.5000,-84.5170,-0.6,29.5,2 
NDBC,ioos:station:wmo:42036:1,2013-09-15T04:50:00Z,28.5000,-84.5170,-0.6,29.4,2 
NDBC,ioos:station:wmo:42036:1,2013-09-15T05:50:00Z,28.5000,-84.5170,-0.6,29.4,2 
NDBC,ioos:station:wmo:42036:1,2013-09-15T06:50:00Z,28.5000,-84.5170,-0.6,29.4,2 
NDBC,ioos:station:wmo:42036:1,2013-09-15T07:50:00Z,28.5000,-84.5170,-0.6,29.4,2 
NDBC,ioos:station:wmo:42036:1,2013-09-15T08:50:00Z,28.5000,-84.5170,-0.6,29.4,2 
NDBC,ioos:station:wmo:42036:1,2013-09-15T09:50:00Z,28.5000,-84.5170,-0.6,29.4,2 
NDBC,ioos:station:wmo:42036:1,2013-09-15T10:50:00Z,28.5000,-84.5170,-0.6,29.4,2 
NDBC,ioos:station:wmo:42036:1,2013-09-15T11:50:00Z,28.5000,-84.5170,-0.6,29.4,2 
NDBC,ioos:station:wmo:42036:1,2013-09-15T12:50:00Z,28.5000,-84.5170,-0.6,29.3,2 
NDBC,ioos:station:wmo:42036:1,2013-09-15T13:50:00Z,28.5000,-84.5170,-0.6,29.4,2 
NDBC,ioos:station:wmo:42036:1,2013-09-15T14:50:00Z,28.5000,-84.5170,-0.6,29.4,2 
NDBC,ioos:station:wmo:42036:1,2013-09-15T15:50:00Z,28.5000,-84.5170,-0.6,29.4,2 
NDBC,ioos:station:wmo:42036:1,2013-09-15T16:50:00Z,28.5000,-84.5170,-0.6,29.5,2 
NDBC,ioos:station:wmo:42036:1,2013-09-15T17:50:00Z,28.5000,-84.5170,-0.6,29.5,2 
NDBC,ioos:station:wmo:42036:1,2013-09-15T18:50:00Z,28.5000,-84.5170,-0.6,29.5,2 
NDBC,ioos:station:wmo:42036:1,2013-09-15T19:50:00Z,28.5000,-84.5170,-0.6,29.6,2 
NDBC,ioos:station:wmo:42036:1,2013-09-15T20:50:00Z,28.5000,-84.5170,-0.6,29.6,2 
NDBC,ioos:station:wmo:42036:1,2013-09-15T21:50:00Z,28.5000,-84.5170,-0.6,29.6,2 
NDBC,ioos:station:wmo:42036:1,2013-09-15T22:50:00Z,28.5000,-84.5170,-0.6,29.6,2 
NDBC,ioos:station:wmo:42036:1,2013-09-15T23:50:00Z,28.5000,-84.5170,-0.6,29.6,2 
NDBC,ioos:station:wmo:42036:1,2013-09-16T00:50:00Z,28.5000,-84.5170,-0.6,29.6,2 
NDBC,ioos:station:wmo:42036:1,2013-09-16T01:50:00Z,28.5000,-84.5170,-0.6,29.5,2 
NDBC,ioos:station:wmo:42036:1,2013-09-16T02:50:00Z,28.5000,-84.5170,-0.6,29.5,2 
NDBC,ioos:station:wmo:42036:1,2013-09-16T03:50:00Z,28.5000,-84.5170,-0.6,29.5,2 
NDBC,ioos:station:wmo:42036:1,2013-09-16T04:50:00Z,28.5000,-84.5170,-0.6,29.5,2 
NDBC,ioos:station:wmo:42036:1,2013-09-16T06:50:00Z,28.5000,-84.5170,-0.6,29.4,2 
NDBC,ioos:station:wmo:42036:1,2013-09-16T07:50:00Z,28.5000,-84.5170,-0.6,29.4,2 
NDBC,ioos:station:wmo:42036:1,2013-09-16T08:50:00Z,28.5000,-84.5170,-0.6,29.4,2 
NDBC,ioos:station:wmo:42036:1,2013-09-16T09:50:00Z,28.5000,-84.5170,-0.6,29.4,2 
NDBC,ioos:station:wmo:42036:1,2013-09-16T10:50:00Z,28.5000,-84.5170,-0.6,29.3,2 
NDBC,ioos:station:wmo:42036:1,2013-09-16T12:50:00Z,28.5000,-84.5170,-0.6,29.3,2 
NDBC,ioos:station:wmo:42036:1,2013-09-16T13:50:00Z,28.5000,-84.5170,-0.6,29.3,2 
NDBC,ioos:station:wmo:42036:1,2013-09-16T14:50:00Z,28.5000,-84.5170,-0.6,29.3,2 
NDBC,ioos:station:wmo:42036:1,2013-09-16T15:50:00Z,28.5000,-84.5170,-0.6,29.4,2 
NDBC,ioos:station:wmo:42036:1,2013-09-16T16:50:00Z,28.5000,-84.5170,-0.6,29.5,2 
NDBC,ioos:station:wmo:42036:1,2013-09-16T17:50:00Z,28.5000,-84.5170,-0.6,29.5,2 
NDBC,ioos:station:wmo:42036:1,2013-09-16T18:50:00Z,28.5000,-84.5170,-0.6,29.5,2 
NDBC,ioos:station:wmo:42036:1,2013-09-16T19:50:00Z,28.5000,-84.5170,-0.6,29.5,2 
NDBC,ioos:station:wmo:42036:1,2013-09-16T21:50:00Z,28.5000,-84.5170,-0.6,29.6,2 
NDBC,ioos:station:wmo:42036:1,2013-09-16T23:50:00Z,28.5000,-84.5170,-0.6,29.5,2 
NDBC,ioos:station:wmo:42036:1,2013-09-17T01:50:00Z,28.5000,-84.5170,-0.6,29.4,2 
NDBC,ioos:station:wmo:42036:1,2013-09-17T02:50:00Z,28.5000,-84.5170,-0.6,29.4,2 